,,Stat5,,Stat1,,Stat2,,Stat3,,Stat4,,Wind1,,Wind1,
time,status,PA1M_AVG,status,PR1M_SUM,status,RH1M_AVG,status,SR1M_AVG,status,TA1M_AVG,status,W1dAve1m,status,W1sAve1m,
2001-11-12, 00:00:00,VALID,917.954,VALID,0,VALID,95.2928,VALID,0.0679233,VALID,19.9042,VALID,31,VALID,0.660473,
2001-11-12, 00:01:01,VALID,917.948,VALID,0,VALID,95.1084,VALID,0.0509425,VALID,19.8652,VALID,42,VALID,0.75699,
2001-11-12, 00:02:00,VALID,917.935,VALID,0,VALID,95.0563,VALID,0.0169808,VALID,19.8657,VALID,43,VALID,0.660979,
2001-11-12, 00:03:01,VALID,917.921,VALID,0,VALID,94.9431,VALID,0.0339617,VALID,19.8853,VALID,36,VALID,0.542268,
2001-11-12, 00:04:01,VALID,917.907,VALID,0,VALID,94.7867,VALID,-0.0679233,VALID,19.8965,VALID,36,VALID,0.33162,
2001-11-12, 00:05:00,VALID,917.918,VALID,0,VALID,94.6074,VALID,-0.101885,VALID,19.9286,VALID,33,VALID,0.248733,
2001-11-12, 00:06:00,VALID,917.917,VALID,0,VALID,94.4268,VALID,-0.101885,VALID,19.935,VALID,16,VALID,0.199314,
2001-11-12, 00:07:00,VALID,917.926,VALID,0,VALID,94.3035,VALID,-0.0679233,VALID,19.9445,VALID,16,VALID,0.32207,
2001-11-12, 00:08:00,VALID,917.923,VALID,0,VALID,94.2857,VALID,-0.0849042,VALID,19.9415,VALID,14,VALID,0.452524,
2001-11-12, 00:09:01,VALID,917.912,VALID,0,VALID,94.1966,VALID,-0.0679233,VALID,19.935,VALID,11,VALID,0.266518,
2001-11-12, 00:10:00,VALID,917.915,VALID,0,VALID,94.1216,VALID,-0.0679233,VALID,19.9259,VALID,10,VALID,0.238086,
2001-11-12, 00:11:00,VALID,917.893,VALID,0,VALID,94.1534,VALID,-0.101885,VALID,19.9035,VALID,8,VALID,0.213759,
2001-11-12, 00:12:01,VALID,917.876,VALID,0,VALID,94.1445,VALID,-0.0849042,VALID,19.8834,VALID,7,VALID,0.177734,
2001-11-12, 00:13:01,VALID,917.857,VALID,0,VALID,94.1305,VALID,-0.0339617,VALID,19.8607,VALID,7,VALID,0.077524,
2001-11-12, 00:14:00,VALID,917.845,VALID,0,VALID,93.9995,VALID,-0.0339617,VALID,19.8516,VALID,7,VALID,0.0429688,
2001-11-12, 00:15:00,VALID,917.84,VALID,0,VALID,93.9182,VALID,-0.0849042,VALID,19.8058,VALID,334,VALID,0.294408,
2001-11-12, 00:16:00,VALID,917.851,VALID,0,VALID,93.7808,VALID,-0.0849042,VALID,19.7447,VALID,334,VALID,0.134924,
2001-11-12, 00:17:00,VALID,917.847,VALID,0,VALID,94.0428,VALID,-0.0339617,VALID,19.738,VALID,8,VALID,0.313368,
2001-11-12, 00:18:01,VALID,917.851,VALID,0,VALID,93.8915,VALID,-0.0339617,VALID,19.6893,VALID,12,VALID,0.312289,
2001-11-12, 00:19:00,VALID,917.844,VALID,0,VALID,94.0301,VALID,-0.0169808,VALID,19.653,VALID,13,VALID,0.416118,
2001-11-12, 00:20:01,VALID,917.841,VALID,0,VALID,94.4624,VALID,0,VALID,19.62,VALID,358,VALID,0.43109,
2001-11-12, 00:21:00,VALID,917.833,VALID,0,VALID,94.6519,VALID,0.0169808,VALID,19.5981,VALID,6,VALID,0.70633,
2001-11-12, 00:22:00,VALID,917.815,VALID,0,VALID,94.985,VALID,0,VALID,19.5847,VALID,8,VALID,0.704814,
2001-11-12, 00:23:00,VALID,917.805,VALID,0,VALID,94.9672,VALID,0.0169808,VALID,19.5454,VALID,7,VALID,0.83676,
2001-11-12, 00:24:00,VALID,917.788,VALID,0,VALID,95.1707,VALID,0.0339617,VALID,19.5236,VALID,1,VALID,0.807492,
2001-11-12, 00:25:00,VALID,917.768,VALID,0,VALID,95.5598,VALID,0.0679233,VALID,19.5102,VALID,8,VALID,0.877604,
2001-11-12, 00:26:00,VALID,917.738,VALID,0,VALID,95.8892,VALID,0.0339617,VALID,19.5429,VALID,12,VALID,0.815257,
2001-11-12, 00:27:00,VALID,917.707,VALID,0,VALID,96.0634,VALID,0.0169808,VALID,19.5427,VALID,18,VALID,0.899054,
2001-11-12, 00:28:00,VALID,917.68,VALID,0,VALID,96.132,VALID,0,VALID,19.5556,VALID,18,VALID,0.884291,
2001-11-12, 00:29:00,VALID,917.669,VALID,0,VALID,96.0913,VALID,0.0339617,VALID,19.569,VALID,14,VALID,0.786458,
2001-11-12, 00:30:00,VALID,917.651,VALID,0,VALID,96.0532,VALID,0.0339617,VALID,19.5656,VALID,21,VALID,0.795139,
2001-11-12, 00:31:00,VALID,917.628,VALID,0,VALID,95.94,VALID,0.0339617,VALID,19.5487,VALID,25,VALID,0.686472,
2001-11-12, 00:32:01,VALID,917.616,VALID,0,VALID,95.8637,VALID,0.0169808,VALID,19.5628,VALID,30,VALID,0.549409,
2001-11-12, 00:33:00,VALID,917.612,VALID,0,VALID,95.8485,VALID,0.0169808,VALID,19.5524,VALID,32,VALID,0.509152,
2001-11-12, 00:34:00,VALID,917.595,VALID,0,VALID,95.8001,VALID,0.0339617,VALID,19.5658,VALID,33,VALID,0.42567,
2001-11-12, 00:35:00,VALID,917.59,VALID,0,VALID,95.79,VALID,0,VALID,19.5921,VALID,33,VALID,0.296464,
2001-11-12, 00:36:01,VALID,917.583,VALID,0,VALID,95.7874,VALID,0.0339617,VALID,19.5912,VALID,33,VALID,0.358173,
2001-11-12, 00:37:00,VALID,917.579,VALID,0,VALID,95.6717,VALID,0,VALID,19.6239,VALID,33,VALID,0.254102,
2001-11-12, 00:38:00,VALID,917.584,VALID,0,VALID,95.4835,VALID,0,VALID,19.6239,VALID,33,VALID,0.0668174,
2001-11-12, 00:39:00,VALID,917.573,VALID,0,VALID,95.308,VALID,0,VALID,19.6242,VALID,33,VALID,0.0627111,
2001-11-12, 00:40:00,VALID,917.559,VALID,0,VALID,95.2355,VALID,0,VALID,19.6277,VALID,33,VALID,0,
2001-11-12, 00:41:01,VALID,917.566,VALID,0,VALID,95.2038,VALID,-0.0169808,VALID,19.6336,VALID,33,VALID,0,
2001-11-12, 00:42:00,VALID,917.56,VALID,0,VALID,95.1834,VALID,0.0339617,VALID,19.6341,VALID,33,VALID,0,
2001-11-12, 00:43:01,VALID,917.559,VALID,0,VALID,95.1783,VALID,0,VALID,19.6468,VALID,28,VALID,0.102009,
2001-11-12, 00:44:00,VALID,917.566,VALID,0,VALID,94.9622,VALID,-0.0169808,VALID,19.6334,VALID,16,VALID,0.0167969,
2001-11-12, 00:45:00,VALID,917.56,VALID,0,VALID,94.793,VALID,0.0169808,VALID,19.6431,VALID,16,VALID,0.062934,
2001-11-12, 00:46:01,VALID,917.552,VALID,0,VALID,94.9164,VALID,0.0169808,VALID,19.6982,VALID,333,VALID,0.330078,
2001-11-12, 00:47:00,VALID,917.549,VALID,0,VALID,94.4586,VALID,0.0339617,VALID,19.7114,VALID,358,VALID,0.22424,
2001-11-12, 00:48:01,VALID,917.553,VALID,0,VALID,94.6468,VALID,0.0169808,VALID,19.7437,VALID,357,VALID,0.052426,
2001-11-12, 00:49:00,VALID,917.547,VALID,0,VALID,94.5527,VALID,0,VALID,19.7758,VALID,357,VALID,0,
2001-11-12, 00:50:00,VALID,917.545,VALID,0,VALID,94.2895,VALID,0.0169808,VALID,19.7951,VALID,357,VALID,0,
2001-11-12, 00:51:00,VALID,917.525,VALID,0,VALID,94.1788,VALID,0.0509425,VALID,19.8212,VALID,357,VALID,0,
2001-11-12, 00:52:00,VALID,917.501,VALID,0,VALID,94.0415,VALID,0.0509425,VALID,19.8506,VALID,357,VALID,0,
2001-11-12, 00:53:01,VALID,917.49,VALID,0,VALID,93.805,VALID,0.0509425,VALID,19.8431,VALID,357,VALID,0.0500422,
2001-11-12, 00:54:00,VALID,917.471,VALID,0,VALID,93.6791,VALID,0.0509425,VALID,19.8433,VALID,357,VALID,0.118712,
2001-11-12, 00:55:00,VALID,917.443,VALID,0,VALID,93.6066,VALID,0.0509425,VALID,19.8299,VALID,357,VALID,0,
2001-11-12, 00:56:01,VALID,917.411,VALID,0,VALID,93.6867,VALID,0.0509425,VALID,19.821,VALID,357,VALID,0.0653783,
2001-11-12, 00:57:00,VALID,917.375,VALID,0,VALID,93.7274,VALID,0.0849042,VALID,19.8277,VALID,357,VALID,0,
2001-11-12, 00:58:00,VALID,917.355,VALID,0,VALID,93.7223,VALID,0.0169808,VALID,19.8272,VALID,358,VALID,0.0775391,
2001-11-12, 00:59:00,VALID,917.326,VALID,0,VALID,93.4477,VALID,0.0339617,VALID,19.811,VALID,9,VALID,0.352965,
2001-11-12, 01:00:01,VALID,917.331,VALID,0,VALID,93.1247,VALID,0.0509425,VALID,19.7529,VALID,26,VALID,0.31942,
2001-11-12, 01:01:00,VALID,917.315,VALID,0,VALID,93.2379,VALID,0.0339617,VALID,19.6918,VALID,26,VALID,0.295898,
2001-11-12, 01:02:00,VALID,917.282,VALID,0,VALID,93.5558,VALID,0.0509425,VALID,19.6461,VALID,26,VALID,0.17079,
2001-11-12, 01:03:01,VALID,917.283,VALID,0,VALID,93.7312,VALID,0.0509425,VALID,19.6073,VALID,26,VALID,0.115234,
2001-11-12, 01:04:01,VALID,917.264,VALID,0,VALID,93.95,VALID,-0.0169808,VALID,19.5827,VALID,26,VALID,0,
2001-11-12, 01:05:00,VALID,917.231,VALID,0,VALID,94.114,VALID,-0.0509425,VALID,19.5824,VALID,26,VALID,0,
2001-11-12, 01:06:00,VALID,917.209,VALID,0,VALID,94.1534,VALID,-0.0509425,VALID,19.6023,VALID,26,VALID,0,
2001-11-12, 01:07:01,VALID,917.193,VALID,0,VALID,94.0708,VALID,-0.0509425,VALID,19.6314,VALID,26,VALID,0.0608108,
2001-11-12, 01:08:00,VALID,917.17,VALID,0,VALID,93.8355,VALID,-0.0679233,VALID,19.6125,VALID,351,VALID,0.217014,
2001-11-12, 01:09:01,VALID,917.147,VALID,0,VALID,94.4853,VALID,-0.0339617,VALID,19.6473,VALID,301,VALID,0.209037,
2001-11-12, 01:10:01,VALID,917.148,VALID,0,VALID,94.2793,VALID,-0.0679233,VALID,19.6893,VALID,301,VALID,0,
2001-11-12, 01:11:01,VALID,917.129,VALID,0,VALID,93.7618,VALID,-0.0339617,VALID,19.6707,VALID,301,VALID,0,
2001-11-12, 01:12:01,VALID,917.114,VALID,0,VALID,93.6677,VALID,-0.0509425,VALID,19.6418,VALID,301,VALID,0,
2001-11-12, 01:13:01,VALID,917.1,VALID,0,VALID,93.7058,VALID,-0.0679233,VALID,19.622,VALID,301,VALID,0,
2001-11-12, 01:14:00,VALID,917.078,VALID,0,VALID,93.7847,VALID,-0.0679233,VALID,19.6192,VALID,301,VALID,0,
2001-11-12, 01:15:01,VALID,917.062,VALID,0,VALID,93.6791,VALID,-0.0679233,VALID,19.6125,VALID,301,VALID,0.0600962,
2001-11-12, 01:16:01,VALID,917.036,VALID,0,VALID,93.7185,VALID,-0.0169808,VALID,19.5864,VALID,175,VALID,0.420072,
2001-11-12, 01:17:01,VALID,917.015,VALID,0,VALID,93.7885,VALID,-0.0679233,VALID,19.5501,VALID,151,VALID,0.317555,
2001-11-12, 01:18:01,VALID,916.996,VALID,0,VALID,93.8419,VALID,-0.0339617,VALID,19.5181,VALID,148,VALID,0.377878,
2001-11-12, 01:19:01,VALID,916.985,VALID,0,VALID,94.0097,VALID,-0.135847,VALID,19.4873,VALID,146,VALID,0.462838,
2001-11-12, 01:20:01,VALID,916.975,VALID,0,VALID,94.2755,VALID,-0.101885,VALID,19.485,VALID,144,VALID,0.334635,
2001-11-12, 01:21:01,VALID,916.964,VALID,0,VALID,94.5692,VALID,-0.118866,VALID,19.4423,VALID,140,VALID,0.174262,
2001-11-12, 01:22:01,VALID,916.947,VALID,0,VALID,94.779,VALID,-0.118866,VALID,19.4423,VALID,140,VALID,0.168174,
2001-11-12, 01:23:01,VALID,916.925,VALID,0,VALID,94.7015,VALID,-0.135847,VALID,19.4164,VALID,140,VALID,0.0225929,
2001-11-12, 01:24:01,VALID,916.899,VALID,0,VALID,94.9113,VALID,-0.135847,VALID,19.4174,VALID,141,VALID,0.323661,
2001-11-12, 01:25:01,VALID,916.875,VALID,0,VALID,95.1885,VALID,-0.135847,VALID,19.4204,VALID,141,VALID,0.196205,
2001-11-12, 01:26:01,VALID,916.858,VALID,0,VALID,95.3742,VALID,-0.135847,VALID,19.4264,VALID,140,VALID,0.306332,
2001-11-12, 01:27:01,VALID,916.835,VALID,0,VALID,95.4326,VALID,-0.135847,VALID,19.4199,VALID,132,VALID,0.310497,
2001-11-12, 01:28:01,VALID,916.815,VALID,0,VALID,94.7765,VALID,-0.186789,VALID,19.3493,VALID,131,VALID,0.0275391,
2001-11-12, 01:29:01,VALID,916.796,VALID,0,VALID,94.9202,VALID,-0.186789,VALID,19.2718,VALID,131,VALID,0,
2001-11-12, 01:30:01,VALID,916.774,VALID,0,VALID,95.6259,VALID,-0.169808,VALID,19.2619,VALID,129,VALID,0,
2001-11-12, 01:31:01,VALID,916.758,VALID,0,VALID,95.9947,VALID,-0.118866,VALID,19.2872,VALID,99,VALID,0.44972,
2001-11-12, 01:32:01,VALID,916.733,VALID,0,VALID,95.9248,VALID,-0.20377,VALID,19.2619,VALID,97,VALID,0.455128,
2001-11-12, 01:33:00,VALID,916.712,VALID,0,VALID,96.0456,VALID,-0.186789,VALID,19.243,VALID,84,VALID,0.627604,
2001-11-12, 01:34:00,VALID,916.688,VALID,0,VALID,95.8154,VALID,-0.0849042,VALID,19.1802,VALID,70,VALID,0.635268,
2001-11-12, 01:35:00,VALID,916.661,VALID,0,VALID,95.8485,VALID,-0.0509425,VALID,19.1382,VALID,68,VALID,0.506445,
2001-11-12, 01:36:00,VALID,916.642,VALID,0,VALID,95.5878,VALID,-0.0849042,VALID,19.0736,VALID,67,VALID,0.536892,
2001-11-12, 01:37:00,VALID,916.611,VALID,0,VALID,96.0913,VALID,-0.0679233,VALID,19.0676,VALID,67,VALID,0.714627,
2001-11-12, 01:38:00,VALID,916.592,VALID,0,VALID,96.455,VALID,-0.101885,VALID,19.0634,VALID,66,VALID,0.660262,
2001-11-12, 01:39:00,VALID,916.572,VALID,0,VALID,96.5733,VALID,-0.0509425,VALID,19.0731,VALID,65,VALID,0.455592,
2001-11-12, 01:40:00,VALID,916.542,VALID,0,VALID,96.3724,VALID,-0.0679233,VALID,19.0343,VALID,65,VALID,0.387247,
2001-11-12, 01:41:00,VALID,916.524,VALID,0,VALID,96.3686,VALID,-0.101885,VALID,18.9926,VALID,65,VALID,0.454181,
2001-11-12, 01:42:00,VALID,916.475,VALID,0,VALID,96.8632,VALID,-0.0679233,VALID,19.0251,VALID,66,VALID,0.413616,
2001-11-12, 01:43:00,VALID,916.465,VALID,0,VALID,97.04,VALID,-0.0679233,VALID,19.0733,VALID,62,VALID,0.45991,
2001-11-12, 01:44:00,VALID,916.45,VALID,0,VALID,97.0056,VALID,-0.0339617,VALID,19.1449,VALID,60,VALID,0.425253,
2001-11-12, 01:45:00,VALID,916.439,VALID,0,VALID,96.4703,VALID,-0.0509425,VALID,19.1511,VALID,60,VALID,0.373094,
2001-11-12, 01:46:00,VALID,916.437,VALID,0,VALID,96.0367,VALID,-0.101885,VALID,19.1253,VALID,70,VALID,0.46875,
2001-11-12, 01:47:00,VALID,916.452,VALID,0,VALID,96.0481,VALID,-0.0509425,VALID,19.1086,VALID,74,VALID,0.395765,
2001-11-12, 01:48:00,VALID,916.454,VALID,0,VALID,96.0685,VALID,-0.0849042,VALID,19.1059,VALID,87,VALID,0.296669,
2001-11-12, 01:49:00,VALID,916.455,VALID,0,VALID,96.1638,VALID,0,VALID,19.0982,VALID,90,VALID,0.00507812,
2001-11-12, 01:50:00,VALID,916.445,VALID,0,VALID,96.1727,VALID,0.0339617,VALID,19.1144,VALID,90,VALID,0,
2001-11-12, 01:51:00,VALID,916.443,VALID,0,VALID,96.1549,VALID,0.0169808,VALID,19.1141,VALID,90,VALID,0,
2001-11-12, 01:52:00,VALID,916.426,VALID,0,VALID,96.118,VALID,0.0509425,VALID,19.131,VALID,90,VALID,0,
2001-11-12, 01:53:00,VALID,916.42,VALID,0,VALID,95.8624,VALID,0.0509425,VALID,19.1111,VALID,90,VALID,0,
2001-11-12, 01:54:00,VALID,916.419,VALID,0,VALID,95.8078,VALID,0.0339617,VALID,19.1044,VALID,90,VALID,0,
2001-11-12, 01:55:00,VALID,916.418,VALID,0,VALID,95.8065,VALID,0.0169808,VALID,19.1074,VALID,71,VALID,0.0917468,
2001-11-12, 01:56:00,VALID,916.412,VALID,0,VALID,95.809,VALID,0.0509425,VALID,19.1241,VALID,344,VALID,0.372327,
2001-11-12, 01:57:00,VALID,916.415,VALID,0,VALID,95.4441,VALID,0.0849042,VALID,19.1049,VALID,323,VALID,0.320929,
2001-11-12, 01:58:00,VALID,916.424,VALID,0,VALID,95.9133,VALID,0.0679233,VALID,19.1397,VALID,289,VALID,0.406672,
2001-11-12, 01:59:00,VALID,916.41,VALID,0,VALID,96.0812,VALID,0.0679233,VALID,19.2018,VALID,265,VALID,0.26671,
2001-11-12, 02:00:00,VALID,916.407,VALID,0,VALID,96.0519,VALID,0.0679233,VALID,19.2465,VALID,238,VALID,0.176943,
2001-11-12, 02:01:00,VALID,916.404,VALID,0,VALID,95.4479,VALID,0.0339617,VALID,19.2406,VALID,230,VALID,0.351151,
2001-11-12, 02:02:00,VALID,916.401,VALID,0,VALID,95.7175,VALID,0.0849042,VALID,19.2428,VALID,240,VALID,0.3127,
2001-11-12, 02:03:00,VALID,916.365,VALID,0,VALID,95.4365,VALID,0.0849042,VALID,19.2498,VALID,359,VALID,0.302083,
2001-11-12, 02:04:00,VALID,916.337,VALID,0,VALID,95.4746,VALID,-0.101885,VALID,19.2524,VALID,279,VALID,0.0688345,
2001-11-12, 02:05:00,VALID,916.32,VALID,0,VALID,94.9469,VALID,-0.152827,VALID,19.204,VALID,1,VALID,0.234169,
2001-11-12, 02:06:00,VALID,916.307,VALID,0,VALID,94.9927,VALID,-0.135847,VALID,19.1659,VALID,9,VALID,0.171274,
2001-11-12, 02:07:00,VALID,916.281,VALID,0,VALID,94.9316,VALID,-0.118866,VALID,19.1267,VALID,9,VALID,0.264623,
2001-11-12, 02:08:00,VALID,916.254,VALID,0,VALID,95.2495,VALID,-0.101885,VALID,19.1202,VALID,9,VALID,0.484605,
2001-11-12, 02:09:00,VALID,916.215,VALID,0,VALID,95.6476,VALID,-0.152827,VALID,19.1458,VALID,21,VALID,0.684211,
2001-11-12, 02:10:00,VALID,916.198,VALID,0,VALID,95.776,VALID,-0.152827,VALID,19.1923,VALID,27,VALID,0.624155,
2001-11-12, 02:11:00,VALID,916.173,VALID,0,VALID,95.8243,VALID,-0.152827,VALID,19.2042,VALID,10,VALID,0.5625,
2001-11-12, 02:12:00,VALID,916.166,VALID,0,VALID,95.7327,VALID,-0.135847,VALID,19.2012,VALID,9,VALID,0.396701,
2001-11-12, 02:13:00,VALID,916.144,VALID,0,VALID,95.6984,VALID,-0.135847,VALID,19.1911,VALID,9,VALID,0.278166,
2001-11-12, 02:14:00,VALID,916.116,VALID,0,VALID,95.9362,VALID,-0.135847,VALID,19.2137,VALID,6,VALID,0.533784,
2001-11-12, 02:15:00,VALID,916.08,VALID,0,VALID,95.9655,VALID,-0.135847,VALID,19.2365,VALID,8,VALID,0.59308,
2001-11-12, 02:16:00,VALID,916.05,VALID,0,VALID,95.8396,VALID,-0.135847,VALID,19.2333,VALID,10,VALID,0.569196,
2001-11-12, 02:17:00,VALID,916.029,VALID,0,VALID,95.9438,VALID,-0.152827,VALID,19.2497,VALID,5,VALID,0.387541,
2001-11-12, 02:18:00,VALID,916.007,VALID,0,VALID,95.9896,VALID,-0.135847,VALID,19.2328,VALID,3,VALID,0.487981,
2001-11-12, 02:19:00,VALID,915.994,VALID,0,VALID,95.8129,VALID,0.0169808,VALID,19.2177,VALID,2,VALID,0.475391,
2001-11-12, 02:20:00,VALID,915.976,VALID,0,VALID,95.6959,VALID,0.0679233,VALID,19.2046,VALID,1,VALID,0.522615,
2001-11-12, 02:21:00,VALID,915.96,VALID,0,VALID,95.631,VALID,0.0849042,VALID,19.1725,VALID,11,VALID,0.816707,
2001-11-12, 02:22:00,VALID,915.945,VALID,0,VALID,95.8192,VALID,0.0679233,VALID,19.1564,VALID,9,VALID,0.978766,
2001-11-12, 02:23:00,VALID,915.941,VALID,0,VALID,96.3444,VALID,0.0679233,VALID,19.1882,VALID,7,VALID,1.02023,
2001-11-12, 02:24:00,VALID,915.928,VALID,0,VALID,96.1384,VALID,0.0509425,VALID,19.202,VALID,11,VALID,0.767027,
2001-11-12, 02:25:00,VALID,915.932,VALID,0,VALID,96.1041,VALID,0.0509425,VALID,19.1688,VALID,12,VALID,0.844643,
2001-11-12, 02:26:00,VALID,915.919,VALID,0,VALID,96.1397,VALID,0.0339617,VALID,19.1628,VALID,13,VALID,1.0082,
2001-11-12, 02:27:00,VALID,915.922,VALID,0,VALID,96.2071,VALID,0.0509425,VALID,19.1824,VALID,16,VALID,1.04362,
2001-11-12, 02:28:00,VALID,915.916,VALID,0,VALID,95.879,VALID,0.0849042,VALID,19.1854,VALID,17,VALID,0.995877,
2001-11-12, 02:29:00,VALID,915.897,VALID,0,VALID,95.7607,VALID,0.101885,VALID,19.1685,VALID,17,VALID,1.15245,
2001-11-12, 02:30:00,VALID,915.875,VALID,0,VALID,95.6921,VALID,0.0339617,VALID,19.2108,VALID,14,VALID,1.15214,
2001-11-12, 02:31:00,VALID,915.862,VALID,0,VALID,95.5102,VALID,0.0679233,VALID,19.2694,VALID,15,VALID,1.00127,
2001-11-12, 02:32:00,VALID,915.845,VALID,0,VALID,95.3818,VALID,0.0849042,VALID,19.328,VALID,14,VALID,0.788218,
2001-11-12, 02:33:00,VALID,915.812,VALID,0,VALID,95.1071,VALID,0.0679233,VALID,19.366,VALID,12,VALID,0.713393,
2001-11-12, 02:34:00,VALID,915.803,VALID,0,VALID,94.8286,VALID,-0.0169808,VALID,19.4289,VALID,11,VALID,0.51213,
2001-11-12, 02:35:00,VALID,915.793,VALID,0,VALID,94.6125,VALID,-0.0339617,VALID,19.4743,VALID,6,VALID,0.70587,
2001-11-12, 02:36:00,VALID,915.782,VALID,0,VALID,94.3009,VALID,-0.0339617,VALID,19.5357,VALID,11,VALID,0.641006,
2001-11-12, 02:37:00,VALID,915.764,VALID,0,VALID,94.0822,VALID,-0.0509425,VALID,19.5675,VALID,11,VALID,1.07012,
2001-11-12, 02:38:00,VALID,915.759,VALID,0,VALID,93.8749,VALID,-0.0509425,VALID,19.6615,VALID,10,VALID,1.26727,
2001-11-12, 02:39:00,VALID,915.734,VALID,0,VALID,93.5316,VALID,-0.0339617,VALID,19.7293,VALID,14,VALID,0.826069,
2001-11-12, 02:40:00,VALID,915.716,VALID,0,VALID,93.2811,VALID,-0.0339617,VALID,19.7812,VALID,11,VALID,0.968359,
2001-11-12, 02:41:00,VALID,915.704,VALID,0,VALID,93.1883,VALID,-0.0339617,VALID,19.8237,VALID,8,VALID,1.003,
2001-11-12, 02:42:00,VALID,915.684,VALID,0,VALID,92.9912,VALID,-0.0169808,VALID,19.8227,VALID,9,VALID,0.807589,
2001-11-12, 02:43:00,VALID,915.666,VALID,0,VALID,93.0802,VALID,0,VALID,19.862,VALID,13,VALID,1.01895,
2001-11-12, 02:44:00,VALID,915.654,VALID,0,VALID,92.8615,VALID,0,VALID,19.91,VALID,3,VALID,0.856988,
2001-11-12, 02:45:00,VALID,915.641,VALID,0,VALID,92.6478,VALID,-0.0509425,VALID,19.9355,VALID,6,VALID,0.69987,
2001-11-12, 02:46:00,VALID,915.625,VALID,0,VALID,92.527,VALID,-0.0169808,VALID,19.9552,VALID,10,VALID,0.654447,
2001-11-12, 02:47:00,VALID,915.609,VALID,0,VALID,92.4622,VALID,-0.0169808,VALID,19.9654,VALID,9,VALID,0.365337,
2001-11-12, 02:48:00,VALID,915.597,VALID,0,VALID,92.3961,VALID,-0.0339617,VALID,19.9651,VALID,9,VALID,0.553043,
2001-11-12, 02:49:00,VALID,915.59,VALID,0,VALID,92.4024,VALID,0,VALID,19.9708,VALID,6,VALID,0.578125,
2001-11-12, 02:50:00,VALID,915.574,VALID,0,VALID,92.3528,VALID,0.0169808,VALID,19.9634,VALID,7,VALID,0.926866,
2001-11-12, 02:51:00,VALID,915.553,VALID,0,VALID,92.1545,VALID,0,VALID,19.986,VALID,20,VALID,0.551731,
2001-11-12, 02:52:00,VALID,915.56,VALID,0,VALID,92.0298,VALID,0,VALID,20.0016,VALID,18,VALID,0.249383,
2001-11-12, 02:53:00,VALID,915.574,VALID,0,VALID,91.9574,VALID,0.0169808,VALID,20.0123,VALID,265,VALID,0.31871,
2001-11-12, 02:54:00,VALID,915.589,VALID,0,VALID,92.0502,VALID,0,VALID,20.0183,VALID,229,VALID,0.288862,
2001-11-12, 02:55:00,VALID,915.592,VALID,0,VALID,92.0222,VALID,0.0169808,VALID,20.024,VALID,229,VALID,0.0101351,
2001-11-12, 02:56:00,VALID,915.595,VALID,0,VALID,92.0235,VALID,0.0169808,VALID,20.0245,VALID,229,VALID,0.104235,
2001-11-12, 02:57:00,VALID,915.6,VALID,0,VALID,92.0464,VALID,0.0169808,VALID,20.021,VALID,229,VALID,0,
2001-11-12, 02:58:00,VALID,915.61,VALID,0,VALID,92.129,VALID,0.0169808,VALID,20.018,VALID,229,VALID,0.14984,
2001-11-12, 02:59:00,VALID,915.626,VALID,0,VALID,92.1316,VALID,0.0169808,VALID,20.031,VALID,229,VALID,0.0344669,
2001-11-12, 03:00:00,VALID,915.635,VALID,0,VALID,92.0845,VALID,0,VALID,20.0411,VALID,229,VALID,0,
2001-11-12, 03:01:00,VALID,915.659,VALID,0,VALID,91.9701,VALID,0,VALID,20.0339,VALID,229,VALID,0,
2001-11-12, 03:02:00,VALID,915.674,VALID,0,VALID,91.9841,VALID,0,VALID,20.0411,VALID,229,VALID,0,
2001-11-12, 03:03:00,VALID,915.682,VALID,0,VALID,92.1278,VALID,0,VALID,20.0379,VALID,229,VALID,0.0208333,
2001-11-12, 03:04:00,VALID,915.677,VALID,0,VALID,92.1964,VALID,0,VALID,20.0339,VALID,229,VALID,0.254729,
2001-11-12, 03:05:00,VALID,915.672,VALID,0,VALID,92.0464,VALID,0,VALID,20.0764,VALID,229,VALID,0.138725,
2001-11-12, 03:06:00,VALID,915.652,VALID,0,VALID,91.8671,VALID,0,VALID,20.1217,VALID,230,VALID,0.141071,
2001-11-12, 03:07:00,VALID,915.613,VALID,0,VALID,91.806,VALID,0,VALID,20.1087,VALID,23,VALID,0.808259,
2001-11-12, 03:08:00,VALID,915.58,VALID,0,VALID,92.1176,VALID,0,VALID,20.0441,VALID,23,VALID,1.00802,
2001-11-12, 03:09:00,VALID,915.555,VALID,0,VALID,92.5207,VALID,0,VALID,19.9957,VALID,23,VALID,0.674679,
2001-11-12, 03:10:00,VALID,915.541,VALID,0,VALID,92.8958,VALID,0.0339617,VALID,19.9502,VALID,27,VALID,0.691797,
2001-11-12, 03:11:00,VALID,915.512,VALID,0,VALID,93.2277,VALID,0,VALID,19.9373,VALID,38,VALID,0.384663,
2001-11-12, 03:12:00,VALID,915.491,VALID,0,VALID,93.3243,VALID,0.0169808,VALID,19.9243,VALID,22,VALID,0.556166,
2001-11-12, 03:13:00,VALID,915.471,VALID,0,VALID,93.5074,VALID,0,VALID,19.9219,VALID,18,VALID,0.791667,
2001-11-12, 03:14:00,VALID,915.463,VALID,0,VALID,93.7096,VALID,0.0339617,VALID,19.9209,VALID,16,VALID,0.72516,
2001-11-12, 03:15:00,VALID,915.443,VALID,0,VALID,93.7363,VALID,0.0339617,VALID,19.9532,VALID,9,VALID,0.528446,
2001-11-12, 03:16:00,VALID,915.437,VALID,0,VALID,93.7109,VALID,0.0509425,VALID,19.9726,VALID,9,VALID,0.765848,
2001-11-12, 03:17:00,VALID,915.418,VALID,0,VALID,93.5303,VALID,0.0169808,VALID,20.018,VALID,15,VALID,0.967773,
2001-11-12, 03:18:00,VALID,915.403,VALID,0,VALID,93.2557,VALID,0.0339617,VALID,20.0469,VALID,19,VALID,0.757378,
2001-11-12, 03:19:00,VALID,915.391,VALID,0,VALID,93.0993,VALID,-0.0509425,VALID,20.0643,VALID,20,VALID,0.638021,
2001-11-12, 03:20:00,VALID,915.396,VALID,0,VALID,93.1171,VALID,-0.0509425,VALID,20.061,VALID,23,VALID,0.0986064,
2001-11-12, 03:21:00,VALID,915.403,VALID,0,VALID,93.2099,VALID,-0.0849042,VALID,20.0707,VALID,321,VALID,0.170847,
2001-11-12, 03:22:00,VALID,915.404,VALID,0,VALID,93.3218,VALID,-0.0679233,VALID,20.0508,VALID,282,VALID,0.238598,
2001-11-12, 03:23:00,VALID,915.391,VALID,0,VALID,93.3994,VALID,-0.0169808,VALID,20.0546,VALID,278,VALID,0.045397,
2001-11-12, 03:24:00,VALID,915.381,VALID,0,VALID,93.4121,VALID,-0.0339617,VALID,20.0573,VALID,286,VALID,0.229018,
2001-11-12, 03:25:00,VALID,915.372,VALID,0,VALID,93.29,VALID,-0.0679233,VALID,20.0802,VALID,19,VALID,0.514391,
2001-11-12, 03:26:00,VALID,915.375,VALID,0,VALID,93.0611,VALID,-0.101885,VALID,20.0769,VALID,20,VALID,0.063978,
2001-11-12, 03:27:00,VALID,915.369,VALID,0,VALID,93.0573,VALID,-0.0509425,VALID,20.0538,VALID,20,VALID,0,
2001-11-12, 03:28:00,VALID,915.372,VALID,0,VALID,93.1056,VALID,-0.0679233,VALID,20.0573,VALID,20,VALID,0.00117188,
2001-11-12, 03:29:00,VALID,915.362,VALID,0,VALID,93.1705,VALID,-0.0339617,VALID,20.0476,VALID,20,VALID,0,
2001-11-12, 03:30:00,VALID,915.365,VALID,0,VALID,93.2099,VALID,-0.0849042,VALID,20.0384,VALID,20,VALID,0.171464,
2001-11-12, 03:31:00,VALID,915.343,VALID,0,VALID,93.1997,VALID,-0.0509425,VALID,20.0029,VALID,22,VALID,0.702148,
2001-11-12, 03:32:00,VALID,915.323,VALID,0,VALID,93.4248,VALID,-0.0679233,VALID,19.9539,VALID,20,VALID,1.11018,
2001-11-12, 03:33:00,VALID,915.301,VALID,0,VALID,93.6244,VALID,-0.0509425,VALID,19.9378,VALID,29,VALID,0.791071,